Voltar ao catálogo

SL-8 R/B

AtivoPO
NORAD 21903·ROCKET BODY·🇷🇺 Russia

Lançado Mar 9, 1992 de Plesetsk Cosmodrome

Loading…

Próximas Passagens (próximas 24 horas)

TLE

AtualizadoSource: Space-Track

Época: Sep 14, 2026, 07:11 UTC

1 21903U 92012B   26257.29941844  .00000090  00000-0  78198-4 0  9998
2 21903  82.9385 202.4743 0043809  43.3241 119.5999 13.74760879731113

Acompanhe SL-8 R/B em tempo real com AllMySat

Download on the App Store